カタログに戻る

STARLINK-5916

運用中通信VLEO
NORAD 55988·PAYLOAD·🇺🇸 United States

打ち上げ Mar 24, 2023 から Cape Canaveral Space Force Station

Loading…

次のパス (今後24時間)

TLE

最新Source: CelesTrak SupGP

元期: Sep 15, 2026, 01:38 UTC

1 55988C 23042C   26258.06854167 -.00004124  00000+0 -14937-3 0  2583
2 55988  43.0020  74.1945 0001339 270.1113 125.1501 15.27585270    15

AllMySatでSTARLINK-5916をリアルタイム追跡

Download on the App Store